Regional Weather Roundup
Issued by NWS

Home | Current Version | Previous Version | Graphics & Text | Print | Product List | Glossary On
Versions: 1 2 3 4 5 6 7 8 9 10 11 12 13 14 15 16 17 18 19 20 21 22 23 24 25 26 27 28 29 30 31 32 33 34 35 36 37 38 39 40 41 42 43 44 45 46 47 48 49 50
000
ASUS45 KPSR 240010
RWRAZ

ARIZONA HOURLY REGIONAL WEATHER ROUNDUP
NATIONAL WEATHER SERVICE PHOENIX AZ
500 PM MST THU MAR 23 2017

NOTE: FAIR INDICATES FEW OR NO CLOUDS BELOW 12,000 FEET WITH NO
SIGNIFICANT WEATHER AND/OR OBSTRUCTIONS TO VISIBILITY.

AZZ001>003-036-240100-
NORTHWEST ARIZONA

CITY           SKY/WX    TMP DP  RH WIND       PRES   REMARKS
BULLHEAD CITY  MOSUNNY   73  32  21 CALM      29.93F
KINGMAN        CLOUDY    60  18  19 W18       30.00S
6HR MIN TEMP:  52; 6HR MAX TEMP:  62;

$$

AZZ004>008-015-016-018-240100-
NORTH CENTRAL ARIZONA

CITY           SKY/WX    TMP DP  RH WIND       PRES   REMARKS
GRAND CANYON   LGT RAIN  39  34  82 VRB6      29.97R WCI  35
6HR MIN TEMP:  34; 6HR MAX TEMP:  44; 6HR PCP:  0.02;

WILLIAMS       CLOUDY    37  34  87 W16G25    30.00R WCI  28
PRESCOTT       CLOUDY    45  36  70 W14       30.03R
6HR MIN TEMP:  44; 6HR MAX TEMP:  50; 6HR PCP: TRACE;

FLAGSTAFF      LGT SNOW  33  31  92 SW14      29.98S FOG     WCI  23
6HR MIN TEMP:  31; 6HR MAX TEMP:  36; 6HR PCP:  0.12;

PAYSON         RAIN      39  36  87 NW9       30.05R WCI  33
PAGE           CLOUDY    52  50  93 W8G18     29.85F
6HR MIN TEMP:  48; 6HR MAX TEMP:  57; 6HR PCP: TRACE;

$$

AZZ009>014-017-240100-
NORTHEAST ARIZONA

CITY           SKY/WX    TMP DP  RH WIND       PRES   REMARKS
WINSLOW        PTSUNNY   50  31  48 SW28G37   29.94R
6HR MIN TEMP:  45; 6HR MAX TEMP:  56; 6HR PCP: TRACE;

SAINT JOHNS    PTSUNNY   47  30  51 SW24G35   29.92R
6HR MIN TEMP:  42; 6HR MAX TEMP:  51; 6HR PCP: TRACE;

WINDOW ROCK    PTSUNNY   42  27  55 W14G25    29.89R
6HR MIN TEMP:  35; 6HR MAX TEMP:  46; 6HR PCP: TRACE;

SHOW LOW       PTSUNNY   36  28  75 SW14G24   30.01R WCI  27
$$

AZZ023-240100-
GREATER PHOENIX AREA

CITY           SKY/WX    TMP DP  RH WIND       PRES   REMARKS
PHOENIX        PTSUNNY   70  33  25 W23G29    29.96S
6HR MIN TEMP:  61; 6HR MAX TEMP:  72;

BUCKEYE        MOSUNNY   70  32  24 W16       29.98S
GLENDALE       PTSUNNY   72  32  23 MISG      29.99R
DEER VALLEY    CLOUDY    66  34  30 W17G26    29.97R
6HR MIN TEMP:  58; 6HR MAX TEMP:  68; 6HR PCP:  0.03;

SCOTTSDALE     PTSUNNY   63  37  38 SW6       29.99R
6HR MIN TEMP:  59; 6HR MAX TEMP:  68; 6HR PCP:  0.01;

MESA-FALCON    PTSUNNY  N/A N/A N/A SW17G23   29.96R
MESA-GATEWAY   PTSUNNY   66  36  32 W14       29.99S
$$

AZZ027-028-240100-
SOUTHWEST MARICOPA COUNTY AND PINAL COUNTY

CITY           SKY/WX    TMP DP  RH WIND       PRES   REMARKS
CASA GRANDE    NOT AVBL
$$

AZZ503-504-507>509-240100-
SOUTHEAST ARIZONA

CITY           SKY/WX    TMP DP  RH WIND       PRES   REMARKS
TUCSON         PTSUNNY   66  25  21 W16G23    30.03S
6HR MIN TEMP:  57; 6HR MAX TEMP:  68;

DAVIS-MONTHAN  SUNNY     64  25  22 NW18G29   30.02S
6HR MIN TEMP:  56; 6HR MAX TEMP:  67;

RYAN FIELD     SUNNY     64  27  24 W18G24    30.04R
NOGALES        MOSUNNY   62  19  19 W18G26    30.05R
6HR MIN TEMP:  55; 6HR MAX TEMP:  66;

SIERRA VISTA   MOSUNNY   58  17  19 W21G29    30.06R
6HR MIN TEMP:  50; 6HR MAX TEMP:  61;

DOUGLAS        PTSUNNY   60  13  15 NW21G32   30.01R
6HR MIN TEMP:  59; 6HR MAX TEMP:  65;

SAFFORD        MOSUNNY   58  32  37 NW25G36   29.96R
6HR MIN TEMP:  53; 6HR MAX TEMP:  63; 6HR PCP:  0.02;

$$

AZZ020-021-025-026-031-240100-
SOUTHWEST ARIZONA

CITY           SKY/WX    TMP DP  RH WIND       PRES   REMARKS
YUMA           SUNNY     75  32  20 NW9       29.99F
6HR MIN TEMP:  67; 6HR MAX TEMP:  75;

$$

CAZ031-033-041-043-047-048-061-240100-
SOUTHERN CALIFORNIA

CITY           SKY/WX    TMP DP  RH WIND       PRES   REMARKS
DOWNTOWN L.A.  SUNNY     66  39  37 VRB5      30.11R
6HR MIN TEMP:  66; 6HR MAX TEMP:  70;

L.A. AIRPORT   MOSUNNY   62  50  64 W20       30.11S
6HR MIN TEMP:  62; 6HR MAX TEMP:  65;

SAN DIEGO      MOSUNNY   63  42  46 W10       30.17S
6HR MIN TEMP:  62; 6HR MAX TEMP:  66;

BURBANK        SUNNY     65  36  34 S8        30.09R
6HR MIN TEMP:  60; 6HR MAX TEMP:  69;

ONTARIO        MOSUNNY   65  40  39 SW17      30.09S
6HR MIN TEMP:  59; 6HR MAX TEMP:  68;

RIVERSIDE      SUNNY     66  42  41 W10       30.09S
6HR MIN TEMP:  60; 6HR MAX TEMP:  69;

PALM SPRINGS   SUNNY     77  36  22 NW21G26   30.00F
6HR MIN TEMP:  70; 6HR MAX TEMP:  78;

EL CENTRO NAS  MOSUNNY   75  33  21 W12       30.01S
6HR MIN TEMP:  69; 6HR MAX TEMP:  78;

IMPERIAL       SUNNY     76  38  25 W12G22    29.99S
6HR MIN TEMP:  68; 6HR MAX TEMP:  78;

BLYTHE         SUNNY     77  27  15 N7        29.96F
6HR MIN TEMP:  69; 6HR MAX TEMP:  79;

NEEDLES        SUNNY     74  30  19 E3        29.94F
6HR MIN TEMP:  69; 6HR MAX TEMP:  77;

$$

NVZ020-UTZ003-240100-
SOUTHERN NEVADA-UTAH

CITY           SKY/WX    TMP DP  RH WIND       PRES   REMARKS
LAS VEGAS      MOSUNNY   70  22  16 NW16G23   29.92F
6HR MIN TEMP:  60; 6HR MAX TEMP:  72; 6HR PCP: TRACE;

SALT LAKE CITY CLOUDY    40  36  86 CALM      29.98R
6HR MIN TEMP:  33; 6HR MAX TEMP:  40; 6HR PCP:  0.45;

$$

NMZ009-TXZ055-240100-
NEW MEXICO-WEST TEXAS

CITY           SKY/WX    TMP DP  RH WIND       PRES   REMARKS
ALBUQUERQUE    LGT RAIN  44  36  73 SE16      29.79F
6HR MIN TEMP:  44; 6HR MAX TEMP:  69; 6HR PCP: TRACE;

EL PASO        MOSUNNY   65  20  17 W36G49    29.84R
6HR MIN TEMP:  65; 6HR MAX TEMP:  83;

$$


........................KEY........................
SKY/WX - SKY CONDITION/WEATHER
TMP    - TEMPERATURE IN FAHRENHEIT
DP     - DEW POINT IN FAHRENHEIT
RH     - RELATIVE HUMIDITY IN PERCENT
WIND   - DIRECTION AND SPEED IN MILES PER HOUR (MPH)
VRB    - VARIABLE WIND DIRECTION
PRES   - MEAN SEA LEVEL PRESSURE IN INCHES OF MERCURY
         F - FALLING PRESSURE   R - RISING PRESSURE
         S - STEADY PRESSURE
VSB    - VISIBILITY IN MILES
HX     - HEAT INDEX IN FAHRENHEIT
WCI    - WIND CHILL INDEX IN FAHRENHEIT
TC     - TEMPERATURE IN CELSIUS WHICH IS ALSO KNOWN AS
         TEMPERATURE IN CENTIGRADE
AFB    - AIR FORCE BASE
         LUKE AFB IS LUKE AIR FORCE BASE
         DAVIS-MONTHAN IS DAVIS-MONTHAN AIR FORCE BASE
NAS    - NAVAL AIR STATION
         EL CENTRO NAS IS EL CENTRO NAVAL AIR STATION
N/A    - NOT AVAILABLE




USA.gov is the U.S. government's official web portal to all federal, state and local government web resources and services.